[[{"header":{"parameterUnit":"m.s-1","parameterCategory":1,"la1":30.2991,"la2":30.254,"lo1":-89.0895,"lo2":-89.0444,"dy":0.0017,"dx":0.0017,"nx":28,"ny":28,"refTime":"2023-11-15T09:00:00:Z","depth":0,"parameterNumber":2,"parameterNumberName":"U-component_of_WINDS"},"data":[0,0,0,0,0,0,0,0,0,0,0,0,0,0,0,0,0,0,0,0,0,0,0,0,0,0,0,0,0,0,0,0,0,0,0,0,0,0,0,0,0,0,0,0,0,0,0,0,0,0,0,0,0,0,0,0,0,0,-3.714,-3.7142,0,-3.7284,-3.7286,-3.7287,-3.7257,-3.7254,-3.7252,-3.7249,-3.7397,-3.7403,-3.741,0,0,0,0,0,0,0,0,0,0,0,0,0,-3.6839,-3.6844,-3.714,-3.7142,-3.7144,-3.7284,-3.7286,-3.7288,-3.7258,-3.7254,-3.7251,-3.7248,-3.7395,-3.7403,-3.741,0,0,0,0,0,0,0,0,0,0,0,0,0,-3.6975,-3.6846,-3.714,-3.7145,-3.7147,-3.7284,-3.7286,-3.7288,-3.7258,-3.7254,-3.725,-3.7247,-3.7393,-3.7402,-3.7411,-3.7551,0,0,-3.7441,-3.7445,0,0,0,0,0,0,0,0,-3.6967,-3.6986,-3.7143,-3.7145,-3.7148,-3.7249,-3.7234,-3.7376,-3.7259,-3.7216,-3.7249,-3.7245,-3.7351,-3.7364,-3.74,-3.7558,-3.7564,-3.7442,-3.7448,-3.7452,-3.7454,0,0,0,0,0,0,0,-3.6958,-3.698,-3.7197,-3.7145,-3.7148,-3.7141,-3.7156,-3.7261,-3.7304,-3.722,-3.7218,-3.7235,-3.7352,-3.739,-3.7403,-3.7566,-3.7441,-3.745,-3.7456,-3.746,-3.7847,-3.7851,0,0,0,0,0,0,-3.6946,-3.6972,-3.7192,-3.7201,-3.7046,-3.7149,-3.7166,-3.722,-3.7303,-3.7312,-3.7238,-3.7233,-3.7376,-3.7392,-3.7408,-3.7577,-3.7452,-3.7461,-3.7466,-3.7842,-3.7848,-3.7853,0,0,0,0,0,0,-3.694,-3.6966,-3.7187,-3.7086,-3.7114,-3.7159,-3.722,-3.7225,-3.7264,-3.7317,-3.7325,-3.727,-3.7373,-3.7394,-3.7516,-3.7582,-3.7465,-3.7474,-3.7837,-3.7844,-3.785,-3.7917,0,0,0,0,0,0,-3.6931,-3.6964,-3.7018,-3.7088,-3.7119,-3.7292,-3.7224,-3.7231,-3.7281,-3.7275,-3.7349,-3.7357,-3.7372,-3.7501,-3.7525,-3.7593,-3.7481,-3.7831,-3.784,-3.7848,-3.7909,-3.7925,-3.7939,0,0,0,0,0,-3.6921,-3.703,-3.702,-3.7047,-3.7187,-3.7296,-3.7314,-3.7328,-3.7286,-3.734,-3.7375,-3.7355,-3.7571,-3.7514,-3.7541,-3.7613,-3.7827,-3.7838,-3.7848,-3.7902,-3.7922,-3.7939,0,0,0,0,0,0,-3.6967,-3.704,-3.7029,-3.7165,-3.7225,-3.7291,-3.736,-3.7349,-3.7421,-3.7413,-3.7428,-3.7445,-3.7568,-3.7602,-3.7538,-3.7752,-3.7693,-3.7709,-3.7726,-3.7745,-3.7759,-3.7749,-3.7489,0,0,0,0,0,-3.6993,-3.7075,-3.7134,-3.7249,-3.7279,-3.7314,-3.7362,-3.7368,-3.743,-3.7455,-3.7498,-3.756,-3.7641,-3.7695,-3.7773,-3.7913,-3.7929,-3.7976,-3.7991,-3.8003,-3.8017,-3.8094,-3.8116,-3.7886,-3.7886,-3.7886,0,0,-3.7047,-3.7097,-3.7149,-3.7259,-3.7306,-3.7391,-3.7336,-3.7428,-3.7491,-3.7469,-3.7587,-3.7621,-3.769,-3.7822,-3.7882,-3.7854,-3.8084,-3.8016,-3.8025,-3.8032,-3.8107,-3.8129,-3.8148,-3.7893,-3.7892,-3.7891,0,0,-3.7191,-3.7237,-3.7337,-3.7385,-3.7457,-3.7479,-3.7503,-3.7571,-3.7593,-3.7711,-3.7696,-3.7772,-3.7912,-3.7962,-3.8006,-3.8168,-3.8153,-3.8193,-3.8272,-3.8347,-3.8365,-3.8382,-3.844,-3.8461,-3.8207,-3.8207,-3.8207,0,-3.725,-3.7377,-3.739,-3.7484,-3.7533,-3.7517,-3.7619,-3.7665,-3.7758,-3.7793,-3.776,-3.7936,-3.7981,-3.8125,-3.8164,-3.82,-3.8229,-3.8185,-3.8362,-3.8378,-3.8393,-3.8449,-3.8471,-3.8211,-3.8211,-3.821,-3.821,0,-3.7447,-3.7536,-3.7608,-3.7699,-3.7756,-3.7854,-3.7881,-3.7938,-3.7938,-3.7965,-3.8085,-3.8139,-3.8228,-3.8262,-3.8264,-3.8407,-3.8387,-3.8358,-3.8299,-3.8419,-3.8472,-3.8494,-3.8218,-3.8216,-3.8215,-3.8214,0,0,-3.7623,-3.772,-3.7747,-3.7788,-3.7866,-3.7935,-3.8031,-3.8118,-3.8167,-3.8232,-3.8314,-3.8432,-3.8406,-3.8456,-3.8463,-3.8529,-3.8655,-3.8492,-3.8494,-3.8521,-3.8817,-3.8839,-3.8863,-3.8645,-3.8649,-3.8653,-3.8811,0,-3.7774,-3.7945,-3.796,-3.8114,-3.8196,-3.8182,-3.8266,-3.8323,-3.835,-3.8424,-3.8454,-3.8538,-3.8497,-3.8527,-3.8592,-3.8626,-3.8715,-3.8615,-3.8722,-3.8726,-3.8706,-3.8891,-3.8915,-3.9061,-3.8832,-3.8835,-3.8838,0,-3.7973,-3.8044,-3.8207,-3.8273,-3.8309,-3.8384,-3.8465,-3.8536,-3.86,-3.8615,-3.8671,-3.8669,-3.8769,-3.8706,-3.8844,-3.8776,-3.882,-3.8844,-3.885,-3.8861,-3.879,-3.8908,-3.9108,-3.9131,-3.887,-3.8868,-3.8865,0,-3.8087,-3.8223,-3.8338,-3.8374,-3.8454,-3.8508,-3.8544,-3.8604,-3.8655,-3.8726,-3.876,-3.8841,-3.8886,-3.8949,-3.8969,-3.8921,-3.9107,-3.9045,-3.9123,-3.9123,-3.9163,-3.9161,-3.9375,-3.9191,-3.9191,-3.919,-3.919,0,-3.8255,-3.8355,-3.839,-3.8461,-3.8573,-3.8588,-3.8698,-3.8731,-3.8785,-3.8862,-3.8854,-3.8927,-3.8949,-3.9025,-3.9041,-3.9154,-3.9174,-3.9189,-3.9193,-3.9191,-3.9189,-3.9221,-3.9211,-3.9196,-3.9195,-3.9194,-3.9193,0,-3.8401,-3.8429,-3.8553,-3.8619,-3.8638,-3.8717,-3.8774,-3.8842,-3.8868,-3.8965,-3.8989,-3.903,-3.9119,-3.9145,-3.9253,-3.9264,-3.9396,-3.939,-3.9374,-3.9375,-3.9451,-3.9444,-3.9694,-3.9728,-3.9521,-3.9523,-3.9525,0,-3.8506,-3.8583,-3.8657,-3.8708,-3.8746,-3.8829,-3.8881,-3.8899,-3.8954,-3.9033,-3.9092,-3.9181,-3.9252,-3.9396,-3.9436,-3.9518,-3.9514,-3.9596,-3.9526,-3.9522,-3.9516,-3.9512,-3.952,-3.9609,-3.9611,-3.9613,-3.9615,0,-3.869,-3.87,-3.8776,-3.8858,-3.8921,-3.8986,-3.9048,-3.909,-3.9117,-3.9179,-3.9271,-3.9327,-3.9437,-3.9525,-3.9608,-3.9645,-3.9635,-3.9636,-3.9659,-3.9658,-3.9646,-3.9654,-3.9411,-3.963,-3.9629,-3.9628,-3.9627,-3.9626,-3.882,-3.8888,-3.8951,-3.9036,-3.9085,-3.9143,-3.9211,-3.9245,-3.9322,-3.9413,-3.9418,-3.9518,-3.958,-3.9692,-3.9733,-3.9811,-3.9787,-3.982,-3.9828,-3.9836,-3.9843,-3.9633,-3.9826,-3.9826,-3.9826,-3.9825,-3.9825,0,-3.9004,-3.9044,-3.9122,-3.921,-3.9277,-3.9261,-3.9329,-3.9387,-3.9474,-3.9533,-3.9604,-3.971,-3.9795,-3.9841,-3.9926,-3.998,-3.9978,-4.0002,-3.9999,-4.0008,-3.9859,-3.9831,-4.0003,-4.0003,-4.0003,-4.0003,-4.0003,-4.0003,-3.9108,-3.9222,-3.924,-3.9378,-3.9417,-3.9515,-3.9555,-3.9609,-3.9656,-3.9775,-3.9846,-3.9875,-3.9929,-4.0018,-4.0096,-4.0107,-4.014,-4.0167,-4.0176,-4.0036,-4.0018,-4.0001,-3.9975,-4.0174,-4.0174,-4.0318,-4.0319,-4.032]},{"header":{"parameterUnit":"m.s-1","parameterCategory":1,"la1":30.2991,"la2":30.254,"lo1":-89.0895,"lo2":-89.0444,"dy":0.0017,"dx":0.0017,"nx":28,"ny":28,"refTime":"2023-11-15T09:00:00:Z","depth":0,"parameterNumber":3,"parameterNumberName":"V-component_of_WINDS"},"data":[0,0,0,0,0,0,0,0,0,0,0,0,0,0,0,0,0,0,0,0,0,0,0,0,0,0,0,0,0,0,0,0,0,0,0,0,0,0,0,0,0,0,0,0,0,0,0,0,0,0,0,0,0,0,0,0,0,0,-5.6088,-5.6088,0,-5.6157,-5.6158,-5.6159,-5.6085,-5.6082,-5.6079,-5.6076,-5.6142,-5.6147,-5.6151,0,0,0,0,0,0,0,0,0,0,0,0,0,-5.5885,-5.5889,-5.6088,-5.6088,-5.6089,-5.6157,-5.6158,-5.6159,-5.6085,-5.6082,-5.6078,-5.6075,-5.6141,-5.6146,-5.6152,0,0,0,0,0,0,0,0,0,0,0,0,0,-5.5965,-5.589,-5.6087,-5.6061,-5.6059,-5.6157,-5.6158,-5.6159,-5.6086,-5.6082,-5.6078,-5.6074,-5.6139,-5.6146,-5.6152,-5.6278,0,0,-5.6172,-5.6175,0,0,0,0,0,0,0,0,-5.5961,-5.5973,-5.6064,-5.6063,-5.6061,-5.6108,-5.6111,-5.6199,-5.6087,-5.6076,-5.6076,-5.6071,-5.6134,-5.6141,-5.6163,-5.6281,-5.6284,-5.6173,-5.6177,-5.618,-5.6182,0,0,0,0,0,0,0,-5.5955,-5.5969,-5.6115,-5.6065,-5.6064,-5.6043,-5.605,-5.6127,-5.6128,-5.6076,-5.6071,-5.6081,-5.6132,-5.6157,-5.6164,-5.6285,-5.6173,-5.6179,-5.6183,-5.6185,-5.6509,-5.6513,0,0,0,0,0,0,-5.5954,-5.5965,-5.6113,-5.6117,-5.6,-5.6051,-5.6058,-5.6097,-5.6127,-5.6127,-5.6084,-5.6077,-5.6148,-5.6156,-5.6166,-5.6315,-5.618,-5.6186,-5.619,-5.6504,-5.651,-5.6515,0,0,0,0,0,0,-5.595,-5.5967,-5.611,-5.604,-5.6056,-5.6059,-5.6103,-5.6101,-5.6125,-5.6133,-5.6132,-5.611,-5.6145,-5.6157,-5.6251,-5.6317,-5.6189,-5.6195,-5.6499,-5.6506,-5.6512,-5.6615,0,0,0,0,0,0,-5.5944,-5.5966,-5.6016,-5.6042,-5.6061,-5.6196,-5.6107,-5.6105,-5.6138,-5.6129,-5.6156,-5.6157,-5.6142,-5.6242,-5.6258,-5.6323,-5.62,-5.6493,-5.6502,-5.651,-5.6606,-5.6625,-5.6641,0,0,0,0,0,-5.5937,-5.6041,-5.6019,-5.6037,-5.6123,-5.62,-5.621,-5.6193,-5.6143,-5.6192,-5.6196,-5.6156,-5.6307,-5.6252,-5.6269,-5.6338,-5.6489,-5.6499,-5.6509,-5.6598,-5.6621,-5.664,0,0,0,0,0,0,-5.6021,-5.6044,-5.6019,-5.6135,-5.6166,-5.6187,-5.6248,-5.6218,-5.6263,-5.6252,-5.6227,-5.6234,-5.6334,-5.6345,-5.6284,-5.6461,-5.6389,-5.6404,-5.6451,-5.6472,-5.649,-5.6485,-5.6206,0,0,0,0,0,-5.6053,-5.6116,-5.6131,-5.6232,-5.6249,-5.6246,-5.6279,-5.6263,-5.6294,-5.6306,-5.6317,-5.6347,-5.6401,-5.6437,-5.6487,-5.6607,-5.6611,-5.6662,-5.668,-5.6694,-5.6707,-5.677,-5.6793,-5.6549,-5.6549,-5.6549,0,0,-5.6119,-5.614,-5.618,-5.6249,-5.6271,-5.6335,-5.6257,-5.6328,-5.6375,-5.6316,-5.6406,-5.6416,-5.6447,-5.6555,-5.6602,-5.6567,-5.6775,-5.6707,-5.6719,-5.6724,-5.6784,-5.6807,-5.6827,-5.6556,-5.6555,-5.6554,0,0,-5.6273,-5.6296,-5.6382,-5.6406,-5.6441,-5.6439,-5.646,-5.6485,-5.649,-5.658,-5.6538,-5.6591,-5.6685,-5.6709,-5.6734,-5.6897,-5.6861,-5.6913,-5.7005,-5.7067,-5.7087,-5.7104,-5.7162,-5.7183,-5.6926,-5.6926,-5.6927,0,-5.6351,-5.6448,-5.6429,-5.6504,-5.6535,-5.6486,-5.6572,-5.6596,-5.6645,-5.6667,-5.6626,-5.6743,-5.676,-5.6873,-5.6913,-5.6934,-5.6956,-5.6911,-5.7086,-5.7102,-5.7118,-5.7173,-5.7195,-5.6933,-5.6932,-5.6931,-5.6931,0,-5.6542,-5.6609,-5.6674,-5.6725,-5.6763,-5.6843,-5.6835,-5.6875,-5.6856,-5.6857,-5.6949,-5.6968,-5.7021,-5.7047,-5.7028,-5.7156,-5.7133,-5.709,-5.7017,-5.7148,-5.7199,-5.722,-5.6941,-5.6939,-5.6937,-5.6936,0,0,-5.6751,-5.6791,-5.6815,-5.6838,-5.6873,-5.6924,-5.7001,-5.7055,-5.709,-5.7124,-5.7188,-5.7268,-5.7228,-5.7256,-5.7239,-5.7294,-5.7422,-5.7243,-5.7244,-5.7276,-5.7565,-5.7598,-5.7623,-5.7398,-5.7402,-5.7405,-5.7562,0,-5.6906,-5.7042,-5.7027,-5.7156,-5.7217,-5.7172,-5.7238,-5.7266,-5.7269,-5.732,-5.7322,-5.738,-5.7323,-5.7339,-5.7391,-5.7396,-5.7479,-5.7384,-5.7456,-5.7458,-5.745,-5.7649,-5.7685,-5.7832,-5.7582,-5.7585,-5.7588,0,-5.7106,-5.7151,-5.7286,-5.7312,-5.7337,-5.7398,-5.7446,-5.7496,-5.7526,-5.7524,-5.7555,-5.7529,-5.7604,-5.753,-5.7633,-5.7568,-5.7596,-5.7602,-5.7607,-5.7614,-5.7532,-5.7662,-5.7878,-5.7901,-5.7619,-5.7617,-5.7614,0,-5.7246,-5.7339,-5.7432,-5.7453,-5.7486,-5.7529,-5.7544,-5.757,-5.7604,-5.7645,-5.7666,-5.7714,-5.7741,-5.7779,-5.7765,-5.7712,-5.7871,-5.7795,-5.787,-5.7871,-5.7906,-5.7904,-5.8131,-5.7924,-5.7923,-5.7923,-5.7923,0,-5.7421,-5.7506,-5.7496,-5.7553,-5.7646,-5.7627,-5.7719,-5.7728,-5.7752,-5.7809,-5.7771,-5.7825,-5.7804,-5.7856,-5.7846,-5.7932,-5.7944,-5.7944,-5.794,-5.7948,-5.7948,-5.7967,-5.7956,-5.7929,-5.7928,-5.7926,-5.7925,0,-5.7593,-5.759,-5.7689,-5.7712,-5.7719,-5.7787,-5.7806,-5.7859,-5.7859,-5.7931,-5.7947,-5.7946,-5.8006,-5.7996,-5.8061,-5.8054,-5.8163,-5.8146,-5.8153,-5.815,-5.8226,-5.8219,-5.8473,-5.8505,-5.8276,-5.8278,-5.828,0,-5.7706,-5.777,-5.7801,-5.7837,-5.7856,-5.7915,-5.7949,-5.7932,-5.7969,-5.8008,-5.8057,-5.8113,-5.8157,-5.8254,-5.8258,-5.8308,-5.8292,-5.8378,-5.8299,-5.8305,-5.8294,-5.8291,-5.8297,-5.8393,-5.8396,-5.8398,-5.84,0,-5.7906,-5.7901,-5.7953,-5.8005,-5.8047,-5.8087,-5.8122,-5.8153,-5.8139,-5.8182,-5.8244,-5.8278,-5.8345,-5.8402,-5.8448,-5.8461,-5.8429,-5.8424,-5.8444,-5.8453,-5.8455,-5.8456,-5.8196,-5.8419,-5.8417,-5.8415,-5.8414,-5.8414,-5.8052,-5.8107,-5.8138,-5.8197,-5.8222,-5.8256,-5.8307,-5.8314,-5.8365,-5.842,-5.8406,-5.8476,-5.8503,-5.8562,-5.858,-5.8633,-5.8601,-5.863,-5.8638,-5.8645,-5.8655,-5.8447,-5.8641,-5.8641,-5.864,-5.864,-5.8639,0,-5.825,-5.8268,-5.8323,-5.8374,-5.842,-5.8387,-5.8424,-5.8464,-5.8526,-5.8555,-5.86,-5.867,-5.8725,-5.8733,-5.8784,-5.8825,-5.8811,-5.8839,-5.8836,-5.884,-5.868,-5.8658,-5.8849,-5.8849,-5.8849,-5.8849,-5.8849,-5.8849,-5.8359,-5.8451,-5.845,-5.8554,-5.857,-5.8639,-5.8663,-5.8694,-5.8717,-5.8798,-5.8844,-5.8849,-5.887,-5.8922,-5.897,-5.8971,-5.8991,-5.9025,-5.9021,-5.8872,-5.8851,-5.8831,-5.881,-5.903,-5.903,-5.9176,-5.9177,-5.9178]}]]